Weather History for CXVN - October, 2013

Change the Weather History Date:

Thursday, October 3, 2013

  Actual Average Record
Temperature  
Mean Temperature 56 °F -  
Max Temperature 65 °F - - ()
Min Temperature 47 °F - - ()
Degree Days  
Heating Degree Days 9    
Growing Degree Days 6 (Base 50)    
Moisture  
Dew Point 50 °F    
Average Humidity 76    
Maximum Humidity 88    
Minimum Humidity 65    
Precipitation  
Precipitation 0.08 in - - ()
Sea Level Pressure  
Sea Level Pressure 30.04 in    
Wind  
Wind Speed 3 mph ()    
Max Wind Speed 6 mph    
Max Gust Speed -    
T = Trace of Precipitation, MM = Missing Value Source: Averaged Metar Reports

Daily Weather History Graph

Daily Weather History Graph

Search for Another Location

Airport or City:

Trip Planner

Search our weather history database for the weather conditions in past years. The results will help you decide how hot, cold, wet, or windy it might be!

Date:

Astronomy

Oct. 03, 2013 Rise Set
Actual Time 7:17 AM EDT 6:54 PM EDT
Civil Twilight 6:49 AM EDT 7:23 PM EDT
Nautical Twilight 6:16 AM EDT 7:56 PM EDT
Astronomical Twilight 5:42 AM EDT 8:29 PM EDT
Moon 5:47 AM EDT (10/3) 6:03 PM EDT (10/3)
Length of Visible Light 12h 34m
Length of Day
11h 37m
Waning Crescent, 2% of the Moon is Illuminated
Oct 3
Waning Crescent
Oct 4
New
Oct 11
First Quarter
Oct 18
Full
Oct 26
Last Quarter

Hourly Weather History & Observations

Time (EDT) Temp. Dew Point Humidity Pressure Visibility Wind Dir Wind Speed Gust Speed Precip Events Conditions
12:00 AM 54.7 °F 45.3 °F 71% 30.07 in - WSW 3.5 mph - N/A   Unknown
1:00 AM 52.0 °F 45.1 °F 77% 30.07 in - SSW 3.5 mph - N/A   Unknown
2:00 AM 50 °F 44 °F 73% 30.07 in - SW 2.3 mph - -  
2:00 AM 50.4 °F 44.1 °F 79% 30.07 in - SW 2.3 mph - N/A   Unknown
3:00 AM 50.5 °F 43.9 °F 78% 30.06 in - SSW 4.6 mph - N/A   Unknown
4:00 AM 49.3 °F 43.2 °F 79% 30.07 in - South 3.5 mph - N/A   Unknown
5:00 AM 49.3 °F 41.9 °F 76% 30.07 in - SSW 3.5 mph - N/A   Unknown
6:00 AM 51.1 °F 41.5 °F 70% 30.08 in - SSW 4.6 mph - N/A   Unknown
7:00 AM 50.5 °F 42.3 °F 73% 30.09 in - SSW 3.5 mph - N/A   Unknown
8:00 AM 49 °F 43 °F 74% 30.09 in - SSW 1.2 mph - -  
8:00 AM 49.1 °F 43.2 °F 80% 30.09 in - SSW 1.2 mph - N/A   Unknown
9:00 AM 58.3 °F 46.4 °F 65% 30.09 in - SW 1.2 mph - N/A   Unknown
10:00 AM 61.5 °F 50.7 °F 68% 30.10 in - NNE 4.6 mph - N/A   Unknown
11:00 AM 61.5 °F 49.6 °F 65% 30.09 in - NE 3.5 mph - N/A   Unknown
12:00 PM 62.2 °F 52.0 °F 69% 30.08 in - NE 5.8 mph - N/A   Unknown
1:00 PM 63.1 °F 54.0 °F 72% 30.06 in - East 4.6 mph - N/A   Unknown
2:00 PM 63 °F 55 °F 67% 30.03 in - ENE 4.6 mph - -  
2:00 PM 62.8 °F 54.7 °F 75% 30.03 in - ENE 4.6 mph - N/A   Unknown
3:00 PM 63.1 °F 52.9 °F 69% 30.02 in - NE 5.8 mph - N/A   Unknown
4:00 PM 64.2 °F 55.2 °F 73% 29.99 in - ENE 4.6 mph - N/A   Unknown
5:00 PM 63.5 °F 55.2 °F 74% 29.99 in - ENE 4.6 mph - N/A   Unknown
6:00 PM 63.5 °F 55.9 °F 76% 29.98 in - NNE 3.5 mph - N/A   Unknown
7:00 PM 61.7 °F 57.4 °F 86% 29.99 in - WNW 2.3 mph - N/A   Unknown
8:00 PM 62 °F 58 °F 81% 29.99 in - NNW 1.2 mph - -  
8:00 PM 61.9 °F 57.7 °F 86% 29.99 in - NNW 1.2 mph - N/A   Unknown
9:00 PM 63.1 °F 59.5 °F 88% 29.98 in - SE 3.5 mph - N/A   Unknown
10:00 PM 59.5 °F 55.9 °F 88% 29.97 in - West 2.3 mph - N/A   Unknown
11:00 PM 61.0 °F 57.0 °F 87% 29.99 in - WNW 1.2 mph - N/A   Unknown